1506477601.25,7643,14.94,74734.3,1.55,-25.45,-25.81,0,*42
1506477602.47,7644,14.88,74728.8,1.55,-25.49,-25.91,0,*48
1506477603.72,7645,14.94,74730.5,1.55,-25.61,-25.97,0,*45
1506477604.95,7646,14.88,74728.5,1.55,-25.65,-26.07,0,*48
1506477606.17,7647,14.94,74732.0,1.55,-25.49,-25.91,0,*4B
1506477607.39,7648,14.94,74732.0,1.55,-25.61,-25.91,0,*4E
1506477608.61,7649,14.94,74732.3,1.55,-25.61,-25.91,0,*4F
1506477609.83,7650,14.94,74728.5,1.55,-25.61,-25.91,0,*47
1506477611.1,7651,14.94,74728.3,1.55,-25.45,-25.75,0,*4A
1506477612.36,7652,14.94,74728.8,1.55,-25.49,-25.97,0,*49
1506477613.58,7653,14.94,74730.8,1.55,-25.61,-25.91,0,*44
1506477614.83,7654,14.94,74732.3,1.55,-25.29,-25.61,0,*40
1506477616.1,7655,14.94,74728.8,1.55,-25.45,-25.75,0,*4E
1506477617.33,7656,14.94,74732.5,1.53,-25.61,-25.81,0,*46
1506477618.52,7657,14.94,74732.0,1.53,-25.61,-25.91,0,*46
1506477619.79,7658,14.94,74726.8,1.55,-25.45,-25.81,0,*48
1506477621.01,7659,14.94,74732.5,1.55,-25.35,-25.65,0,*44
1506477622.26,7660,14.94,74730.3,1.55,-25.65,-25.97,0,*46
1506477623.52,7661,14.88,74730.3,1.55,-25.61,-25.97,0,*43
1506477624.77,7662,14.94,74732.5,1.55,-25.75,-26.07,0,*4F
1506477626.02,7663,14.88,74730.0,1.55,-25.61,-25.97,0,*41
1506477627.26,7664,14.94,74732.0,1.55,-25.35,-25.81,0,*40
1506477628.49,7665,14.88,74726.3,1.53,-25.29,-25.61,0,*44
1506477629.73,7666,14.94,74728.3,1.55,-25.45,-25.91,0,*44
1506477631.0,7667,14.88,74726.5,1.55,-25.45,-25.81,0,*44
1506477632.19,7668,14.94,74732.3,1.53,-25.65,-26.07,0,*42
1506477633.42,7669,14.94,74732.0,1.53,-25.65,-26.13,0,*46
1506477634.68,7670,14.94,74728.3,1.55,-25.45,-25.81,0,*42
1506477635.91,7671,14.94,74734.5,1.55,-25.23,-25.61,0,*4D
1506477637.1,7672,14.94,74730.8,1.53,-25.61,-25.91,0,*41
1506477638.3,7673,14.94,74728.3,1.53,-25.61,-25.91,0,*40
1506477639.52,7674,14.94,74730.3,1.53,-25.65,-25.97,0,*45
1506477640.77,7675,14.94,74730.3,1.55,-25.49,-25.81,0,*4B
1506477642.04,7676,14.94,74730.5,1.55,-25.45,-25.81,0,*44
1506477643.3,7677,14.94,74730.0,1.55,-25.49,-25.97,0,*4E
1506477644.52,7678,14.94,74734.0,1.55,-25.23,-25.61,0,*44
1506477645.75,7679,14.94,74734.3,1.55,-25.23,-25.61,0,*45
1506477646.97,7680,14.94,74732.5,1.53,-25.29,-25.61,0,*4F
1506477648.19,7681,14.94,74730.5,1.55,-25.61,-25.91,0,*4B
1506477649.42,7682,14.94,74732.0,1.55,-25.49,-25.91,0,*42
1506477650.64,7683,14.94,74730.5,1.53,-25.61,-25.97,0,*49
1506477651.86,7684,14.94,74728.3,1.55,-25.61,-25.91,0,*4E
1506477653.11,7685,14.94,74732.8,1.55,-25.49,-25.81,0,*44
1506477654.37,7686,14.94,74728.5,1.55,-25.49,-25.81,0,*47
1506477655.62,7687,14.88,74726.8,1.55,-25.49,-25.81,0,*46
1506477656.84,7688,14.88,74728.0,1.53,-25.65,-25.97,0,*46
1506477658.04,7689,14.94,74728.8,1.53,-25.65,-26.07,0,*4D
1506477659.26,7690,14.94,74730.3,1.53,-25.61,-25.97,0,*4B
1506477660.49,7691,14.94,74728.3,1.55,-25.35,-25.65,0,*40
1506477661.71,7692,14.94,74728.3,1.55,-25.35,-25.65,0,*43
1506477662.94,7693,14.94,74730.0,1.55,-25.49,-25.91,0,*42
1506477664.21,7694,14.94,74728.5,1.55,-25.45,-25.75,0,*43
1506477665.43,7695,14.94,74726.8,1.55,-25.61,-25.91,0,*4E
1506477666.68,7696,14.88,74724.5,1.55,-25.65,-25.97,0,*4F
1506477667.93,7697,14.94,74728.5,1.55,-25.61,-25.97,0,*4A
1506477669.16,7698,14.88,74732.0,1.55,-25.65,-25.91,0,*47
1506477670.41,7699,14.94,74730.3,1.55,-25.61,-25.97,0,*44
1506477671.65,7700,14.88,74726.8,1.55,-25.61,-25.81,0,*42
1506477672.88,7701,14.88,74728.8,1.55,-25.35,-25.65,0,*48
1506477674.1,7702,14.94,74730.0,1.53,-25.35,-25.75,0,*4C
1506477675.33,7703,14.88,74728.8,1.55,-25.49,-25.91,0,*4A
1506477676.55,7704,14.94,74730.0,1.55,-25.65,-26.07,0,*4F
1506477677.8,7705,14.88,74728.3,1.55,-25.61,-25.97,0,*40
1506477679.02,7706,14.88,74730.3,1.55,-25.65,-25.91,0,*41
1506477680.27,7707,14.94,74734.8,1.55,-25.29,-25.65,0,*43
1506477681.5,7708,14.94,74730.3,1.55,-25.35,-25.61,0,*45
1506477682.75,7709,14.94,74734.0,1.55,-25.35,-25.75,0,*41
1506477683.97,7710,14.94,74730.5,1.55,-25.49,-25.91,0,*48
1506477685.22,7711,14.94,74728.3,1.55,-25.61,-25.97,0,*45
1506477686.5,7712,14.94,74730.0,1.55,-25.45,-25.75,0,*4C
1506477687.75,7713,14.94,74728.8,1.55,-25.49,-25.81,0,*4A
1506477688.97,7714,14.94,74728.5,1.55,-25.65,-26.07,0,*4E
1506477690.22,7715,14.94,74730.0,1.55,-25.65,-25.97,0,*45
1506477691.45,7716,14.88,74726.8,1.55,-25.49,-25.91,0,*4E
1506477692.7,7717,14.94,74730.5,1.55,-25.35,-25.75,0,*4E
1506477693.92,7718,14.94,74730.5,1.53,-25.35,-25.75,0,*47
1506477695.2,7719,14.94,74730.3,1.55,-25.75,-25.97,0,*48
1506477696.44,7720,14.94,74732.5,1.55,-25.81,-26.23,0,*45
1506477697.69,7721,14.94,74730.5,1.55,-25.65,-25.97,0,*42
1506477698.89,7722,14.94,74730.3,1.53,-25.65,-26.07,0,*4D
1506477700.14,7723,14.94,74734.8,1.55,-25.65,-25.97,0,*40
1506477701.39,7724,14.94,74734.5,1.55,-25.65,-26.13,0,*48
1506477702.62,7725,14.94,74730.8,1.55,-25.65,-26.07,0,*4C
1506477703.87,7726,14.88,74728.0,1.55,-25.61,-25.97,0,*41
1506477705.12,7727,14.94,74730.0,1.55,-25.65,-25.97,0,*44
1506477706.35,7728,14.94,74730.0,1.53,-25.61,-25.97,0,*49
1506477707.57,7729,14.88,74726.8,1.55,-25.61,-25.91,0,*48
1506477708.76,7730,14.94,74734.8,1.53,-25.61,-25.91,0,*46
1506477709.99,7731,14.94,74730.3,1.53,-25.49,-25.81,0,*4C
1506477711.23,7732,14.94,74728.5,1.53,-25.45,-25.75,0,*48
1506477712.46,7733,14.88,74726.8,1.55,-25.23,-25.49,0,*40
1506477713.68,7734,14.94,74730.5,1.53,-25.29,-25.65,0,*45
1506477714.95,7735,14.94,74730.8,1.55,-25.45,-25.81,0,*42
1506477716.2,7736,14.94,74732.3,1.55,-25.49,-25.97,0,*4A
1506477717.43,7737,14.88,74730.5,1.53,-25.75,-26.07,0,*48
1506477718.67,7738,14.94,74728.3,1.55,-25.45,-25.91,0,*4E
1506477719.94,7739,14.94,74732.3,1.55,-25.45,-25.75,0,*45
1506477721.17,7740,14.94,74732.5,1.53,-25.65,-25.97,0,*43
1506477722.42,7741,14.94,74728.8,1.55,-25.65,-25.97,0,*44
1506477723.64,7742,14.94,74734.3,1.53,-25.75,-26.07,0,*4A
1506477724.88,7743,14.94,74730.8,1.55,-25.45,-25.91,0,*42
1506477726.1,7744,14.88,74728.8,1.53,-25.35,-25.75,0,*4E
1506477727.33,7745,14.94,74734.3,1.53,-25.29,-25.61,0,*47
1506477728.58,7746,14.88,74728.0,1.55,-25.49,-25.81,0,*4A
1506477729.83,7747,14.94,74732.3,1.55,-25.61,-25.97,0,*46
1506477731.11,7748,14.88,74726.0,1.55,-25.45,-25.75,0,*43
1506477732.33,7749,14.94,74730.8,1.53,-25.49,-25.81,0,*43
1506477733.55,7750,14.88,74728.0,1.55,-25.61,-25.91,0,*46
1506477734.77,7751,14.94,74730.0,1.55,-25.65,-26.07,0,*4F
1506477736.0,7752,14.94,74732.0,1.55,-25.65,-26.07,0,*4C
1506477737.25,7753,14.88,74728.5,1.55,-25.65,-25.97,0,*47
1506477738.5,7754,14.88,74728.3,1.55,-25.49,-25.81,0,*49
1506477739.75,7755,14.94,74732.0,1.55,-25.49,-25.81,0,*48
1506477740.98,7756,14.88,74728.5,1.55,-25.49,-25.91,0,*4A
1506477742.25,7757,14.94,74734.0,1.55,-25.45,-25.75,0,*4D
1506477743.47,7758,14.94,74730.8,1.55,-25.65,-25.91,0,*4A
1506477744.72,7759,14.94,74734.8,1.55,-25.65,-25.97,0,*4D
1506477745.97,7760,14.94,74730.8,1.55,-25.75,-26.07,0,*4C
1506477747.24,7761,14.94,74732.5,1.55,-25.45,-25.81,0,*43
1506477748.46,7762,14.94,74732.8,1.55,-25.49,-25.91,0,*4D
1506477749.69,7763,14.88,74730.5,1.53,-25.49,-25.75,0,*40
1506477750.91,7764,14.88,74730.5,1.55,-25.61,-25.91,0,*41
1506477752.19,7765,14.88,74734.3,1.55,-25.75,-25.97,0,*43
1506477753.47,7766,14.94,74734.5,1.55,-25.75,-25.97,0,*40
1506477754.72,7767,14.94,74734.8,1.55,-25.45,-25.65,0,*4F
1506477755.94,7768,14.88,74732.0,1.55,-25.61,-25.91,0,*4D
1506477757.19,7769,14.94,74730.5,1.55,-25.61,-25.97,0,*4A
1506477758.41,7770,14.94,74728.5,1.55,-25.61,-25.91,0,*44
1506477759.69,7771,14.94,74732.8,1.55,-25.81,-26.13,0,*42
1506477760.94,7772,14.94,74732.5,1.55,-25.81,-26.07,0,*44
1506477762.19,7773,14.94,74734.5,1.53,-25.75,-26.13,0,*4D
1506477763.41,7774,14.94,74732.5,1.55,-25.65,-26.07,0,*48
1506477764.69,7775,14.88,74728.0,1.55,-25.75,-25.97,0,*42
1506477765.88,7776,14.88,74728.5,1.53,-25.61,-25.91,0,*44
1506477767.16,7777,14.88,74728.3,1.55,-25.81,-26.13,0,*44
1506477768.43,7778,14.94,74734.5,1.55,-25.75,-26.13,0,*40
1506477769.69,7779,14.88,74732.5,1.55,-25.75,-26.07,0,*44
1506477770.93,7780,14.88,74728.3,1.55,-25.81,-26.23,0,*4F
1506477772.18,7781,14.94,74730.0,1.55,-25.75,-26.07,0,*43
1506477773.38,7782,14.88,74724.5,1.53,-25.49,-25.91,0,*45
1506477774.57,7783,14.94,74728.3,1.53,-25.61,-25.91,0,*4E
1506477775.77,7784,14.94,74732.8,1.53,-25.61,-25.91,0,*49
1506477776.96,7785,14.94,74728.3,1.53,-25.65,-26.07,0,*40
1506477778.24,7786,14.88,74730.5,1.55,-25.75,-25.97,0,*4E
1506477779.46,7787,14.94,74732.8,1.53,-25.61,-25.81,0,*4B
1506477780.71,7788,14.88,74730.8,1.53,-25.75,-25.97,0,*46
1506477781.97,7789,14.88,74734.3,1.53,-25.75,-26.13,0,*48
1506477783.22,7790,14.88,74726.5,1.55,-25.65,-25.97,0,*48
1506477784.41,7791,14.94,74734.3,1.53,-25.61,-25.91,0,*4D
1506477785.66,7792,14.88,74732.5,1.55,-25.65,-25.97,0,*4A
1506477786.92,7793,14.94,74732.0,1.55,-25.61,-25.97,0,*4F
1506477788.14,7794,14.88,74730.0,1.53,-25.61,-25.75,0,*42
1506477789.37,7795,14.88,74732.3,1.55,-25.65,-26.07,0,*47
1506477790.64,7796,14.94,74732.5,1.55,-25.75,-25.97,0,*4F
1506477791.87,7797,14.94,74734.3,1.53,-25.75,-26.07,0,*42
1506477793.12,7798,14.88,74728.8,1.53,-25.81,-26.13,0,*43
1506477794.34,7799,14.88,74734.8,1.53,-25.65,-25.97,0,*47
1506477795.57,7800,14.88,74730.5,1.53,-25.75,-26.07,0,*43
1506477796.76,7801,14.88,74730.0,1.53,-25.61,-25.91,0,*4B
1506477797.99,7802,14.88,74732.8,1.53,-25.49,-25.75,0,*48
1506477799.24,7803,14.88,74734.8,1.55,-25.29,-25.65,0,*48
1506477800.47,7804,14.94,74730.8,1.53,-25.49,-25.75,0,*4E
1506477801.71,7805,14.88,74732.0,1.53,-25.45,-25.81,0,*48
1506477802.93,7806,14.88,74734.0,1.53,-25.61,-25.81,0,*4D
1506477804.15,7807,14.88,74730.5,1.55,-25.49,-25.91,0,*41
1506477805.4,7808,14.94,74734.3,1.53,-25.45,-25.75,0,*4E
1506477806.59,7809,14.94,74730.8,1.53,-25.65,-25.91,0,*47
1506477807.79,7810,14.94,74730.8,1.53,-25.61,-25.91,0,*4B
1506477809.01,7811,14.94,74738.8,1.53,-25.65,-25.97,0,*48
1506477810.26,7812,14.88,74732.0,1.55,-25.75,-26.07,0,*46
1506477811.49,7813,14.94,74728.5,1.53,-25.75,-26.07,0,*41
1506477812.68,7814,14.94,74736.0,1.53,-25.61,-25.91,0,*4F
1506477813.93,7815,14.94,74732.3,1.55,-25.75,-26.07,0,*41
1506477815.16,7816,14.94,74732.0,1.55,-25.65,-26.07,0,*43
1506477816.38,7817,14.88,74734.3,1.53,-25.75,-26.07,0,*45
1506477817.6,7818,14.94,74736.8,1.53,-25.75,-26.07,0,*4A
1506477818.86,7819,14.94,74732.0,1.53,-25.75,-25.97,0,*41
1506477820.05,7820,14.88,74728.3,1.53,-25.65,-25.91,0,*4C
1506477821.28,7821,14.94,74730.0,1.53,-25.61,-25.97,0,*4F
1506477822.5,7822,14.94,74732.8,1.53,-25.61,-25.97,0,*4C
1506477823.75,7823,14.88,74730.5,1.53,-25.75,-25.97,0,*48
1506477824.97,7824,14.88,74730.8,1.53,-25.81,-26.07,0,*4E
1506477826.2,7825,14.88,74730.3,1.53,-25.65,-26.13,0,*40
1506477827.42,7826,14.94,74734.3,1.53,-25.65,-25.97,0,*4C
1506477828.65,7827,14.88,74728.3,1.53,-25.65,-25.97,0,*4D
1506477829.87,7828,14.94,74736.8,1.53,-25.65,-25.81,0,*45
1506477831.09,7829,14.94,74732.0,1.53,-25.75,-26.07,0,*48
1506477832.32,7830,14.88,74728.5,1.53,-25.65,-25.97,0,*4B
1506477833.54,7831,14.88,74730.3,1.53,-25.49,-25.81,0,*43
1506477834.82,7832,14.94,74732.5,1.51,-25.81,-25.97,0,*41
1506477836.05,7833,14.94,74734.3,1.51,-25.65,-26.03,0,*44
1506477837.24,7834,14.94,74732.3,1.53,-25.61,-25.91,0,*4D
1506477838.47,7835,14.94,74738.0,1.53,-25.65,-25.97,0,*4E
1506477839.69,7836,14.94,74734.0,1.53,-25.61,-25.81,0,*4E
1506477840.89,7837,14.88,74730.8,1.53,-25.35,-25.61,0,*40
1506477842.14,7838,14.94,74734.3,1.55,-25.49,-25.81,0,*4C
1506477843.36,7839,14.88,74732.8,1.53,-25.75,-26.07,0,*49
1506477844.61,7840,14.88,74732.0,1.51,-25.87,-26.17,0,*49
1506477845.84,7841,14.88,74728.3,1.53,-25.75,-26.07,0,*46
1506477847.03,7842,14.88,74730.8,1.53,-25.61,-25.91,0,*4C
1506477848.31,7843,14.88,74728.3,1.51,-25.71,-26.13,0,*47
1506477849.53,7844,14.88,74728.8,1.53,-25.75,-26.07,0,*43
1506477850.76,7845,14.88,74728.0,1.53,-25.29,-25.65,0,*4C
1506477852.0,7846,14.88,74730.3,1.55,-25.61,-25.81,0,*4F
1506477853.2,7847,14.88,74734.8,1.53,-25.49,-25.91,0,*43
1506477854.4,7848,14.88,74728.0,1.53,-25.61,-25.91,0,*46
1506477855.59,7849,14.88,74728.0,1.53,-25.61,-25.91,0,*47
1506477856.81,7850,14.94,74734.0,1.53,-25.61,-25.81,0,*4E
1506477858.03,7851,14.88,74732.8,1.55,-25.65,-25.91,0,*4C
1506477859.26,7852,14.88,74730.0,1.53,-25.65,-25.97,0,*4F
1506477860.51,7853,14.88,74732.5,1.53,-25.75,-25.97,0,*4F
1506477861.76,7854,14.88,74730.3,1.51,-25.65,-25.97,0,*4B
1506477863.01,7855,14.88,74728.3,1.51,-25.81,-26.03,0,*4E
1506477864.24,7856,14.88,74730.8,1.53,-25.75,-26.07,0,*40
1506477865.47,7857,14.88,74728.0,1.49,-25.75,-26.03,0,*4E
1506477866.72,7858,14.88,74728.3,1.51,-25.71,-26.03,0,*4C
1506477868.01,7859,14.88,74734.3,1.51,-25.71,-25.97,0,*43
1506477869.26,7860,14.88,74730.3,1.53,-25.81,-25.97,0,*44
1506477870.48,7861,14.94,74734.0,1.53,-25.49,-25.75,0,*4D
1506477871.68,7862,14.88,74732.8,1.53,-25.35,-25.61,0,*40
1506477872.88,7863,14.94,74732.3,1.53,-25.61,-25.91,0,*4F
1506477874.08,7864,14.88,74730.3,1.53,-25.65,-26.07,0,*40
1506477875.3,7865,14.94,74732.0,1.53,-25.75,-26.07,0,*40
1506477876.49,7866,14.94,74734.0,1.53,-25.65,-25.91,0,*4E
1506477877.74,7867,14.88,74732.8,1.53,-25.81,-26.13,0,*4C
1506477878.96,7868,14.88,74732.8,1.53,-25.61,-25.81,0,*45
1506477880.19,7869,14.88,74732.3,1.53,-25.49,-25.75,0,*45
1506477881.41,7870,14.88,74732.5,1.53,-25.61,-25.81,0,*4C
1506477882.64,7871,14.94,74732.3,1.53,-25.49,-25.75,0,*4C
1506477883.84,7872,14.88,74728.3,1.53,-25.65,-25.91,0,*4B
1506477885.09,7873,14.88,74732.0,1.53,-25.75,-25.97,0,*4D
1506477886.34,7874,14.88,74730.0,1.51,-25.65,-25.97,0,*49
1506477887.56,7875,14.88,74728.8,1.51,-25.65,-25.87,0,*49
1506477888.81,7876,14.88,74730.3,1.51,-25.65,-25.97,0,*4B
1506477890.04,7877,14.88,74730.8,1.49,-25.75,-26.07,0,*48
1506477891.26,7878,14.94,74734.3,1.53,-25.75,-26.07,0,*4C
1506477892.51,7879,14.88,74732.3,1.51,-25.65,-25.81,0,*43
1506477893.73,7880,14.88,74732.3,1.51,-25.65,-25.87,0,*43
1506477894.98,7881,14.88,74730.3,1.51,-25.65,-25.97,0,*43
1506477896.2,7882,14.88,74728.8,1.53,-25.61,-25.81,0,*41
1506477897.4,7883,14.88,74732.8,1.53,-25.65,-25.91,0,*45
1506477898.59,7884,14.88,74726.8,1.53,-25.65,-25.91,0,*42
1506477899.82,7885,14.88,74730.5,1.53,-25.65,-25.97,0,*45
1506477901.04,7886,14.88,74728.3,1.53,-25.65,-25.97,0,*46
1506477902.28,7887,14.88,74732.0,1.53,-25.45,-25.81,0,*42
1506477903.51,7888,14.88,74726.0,1.53,-25.49,-25.81,0,*41
1506477904.7,7889,14.88,74728.5,1.53,-25.61,-25.91,0,*4B
1506477905.9,7890,14.88,74728.0,1.53,-25.61,-25.91,0,*43
1506477907.12,7891,14.88,74732.3,1.53,-25.75,-26.07,0,*4B
1506477908.37,7892,14.94,74732.3,1.51,-25.87,-26.13,0,*42
1506477909.57,7893,14.88,74732.5,1.53,-25.65,-25.91,0,*44
1506477910.79,7894,14.88,74732.5,1.53,-25.65,-25.97,0,*45
1506477912.02,7895,14.88,74730.0,1.53,-25.65,-25.97,0,*44
1506477913.29,7896,14.88,74728.8,1.51,-25.81,-26.13,0,*40
1506477914.56,7897,14.88,74730.3,1.51,-25.81,-26.13,0,*41
1506477915.76,7898,14.88,74730.0,1.53,-25.65,-26.07,0,*43
1506477917.02,7899,14.88,74728.3,1.51,-25.71,-26.03,0,*41
1506477918.25,7900,14.88,74732.0,1.53,-25.75,-26.07,0,*42
1506477919.49,7901,14.88,74732.8,1.55,-25.75,-25.91,0,*49
1506477920.72,7902,14.88,74736.0,1.53,-25.75,-26.07,0,*40
1506477921.97,7903,14.94,74736.3,1.53,-25.81,-25.97,0,*40
1506477923.25,7904,14.88,74730.0,1.51,-25.71,-25.97,0,*4A
1506477924.47,7905,14.88,74732.3,1.51,-25.65,-25.87,0,*4F
1506477925.7,7906,14.88,74734.0,1.51,-25.87,-26.03,0,*4F
1506477926.95,7907,14.88,74734.5,1.51,-25.87,-26.17,0,*4B
1506477928.2,7908,14.88,74732.8,1.51,-25.87,-26.29,0,*49
1506477929.48,7909,14.88,74730.0,1.51,-25.97,-26.33,0,*42
1506477930.76,7910,14.88,74730.0,1.51,-25.97,-26.29,0,*41
1506477932.03,7911,14.88,74730.8,1.51,-25.81,-26.17,0,*4A
1506477933.25,7912,14.88,74728.3,1.49,-25.87,-26.17,0,*46
1506477934.47,7913,14.88,74732.8,1.49,-25.87,-26.17,0,*47
1506477935.73,7914,14.88,74734.5,1.51,-26.03,-26.29,0,*4B
1506477937.0,7915,14.88,74732.3,1.51,-25.81,-26.17,0,*4E
1506477938.2,7916,14.88,74730.5,1.49,-25.87,-26.07,0,*43
1506477939.47,7917,14.88,74728.8,1.51,-25.81,-26.17,0,*4C
1506477940.66,7918,14.94,74734.5,1.49,-25.91,-26.23,0,*4C
1506477941.91,7919,14.88,74726.5,1.51,-25.81,-26.07,0,*43
1506477943.13,7920,14.88,74734.0,1.49,-25.91,-26.17,0,*40
1506477944.32,7921,14.94,74736.8,1.49,-25.91,-26.23,0,*46
1506477945.57,7922,14.88,74734.3,1.51,-25.81,-26.03,0,*4F
1506477946.77,7923,14.88,74732.3,1.49,-25.65,-25.87,0,*42
1506477947.99,7924,14.88,74732.3,1.49,-25.55,-25.87,0,*46
1506477949.22,7925,14.88,74730.0,1.49,-25.71,-25.91,0,*46
1506477950.45,7926,14.88,74732.0,1.49,-25.75,-26.03,0,*49
1506477951.7,7927,14.88,74728.0,1.51,-25.81,-26.03,0,*4A
1506477952.93,7928,14.88,74734.5,1.49,-25.71,-26.03,0,*43
1506477954.16,7929,14.88,74728.8,1.51,-25.65,-26.03,0,*4E
1506477955.41,7930,14.88,74730.5,1.51,-25.65,-25.97,0,*48
1506477956.63,7931,14.88,74730.5,1.49,-25.87,-26.17,0,*47
1506477957.83,7932,14.88,74730.0,1.49,-25.87,-26.07,0,*45
1506477959.05,7933,14.88,74732.5,1.49,-25.91,-26.17,0,*42
1506477960.27,7934,14.88,74734.3,1.49,-25.87,-26.17,0,*42
1506477961.52,7935,14.88,74726.3,1.51,-25.87,-26.29,0,*47
1506477962.72,7936,14.88,74730.3,1.49,-25.91,-26.07,0,*46
1506477963.97,7937,14.88,74728.8,1.49,-25.75,-26.17,0,*4C
1506477965.16,7938,14.88,74726.8,1.49,-25.91,-26.39,0,*45
1506477966.38,7939,14.88,74734.5,1.49,-25.87,-26.17,0,*4F
1506477967.66,7940,14.88,74730.3,1.51,-25.81,-26.13,0,*4A
1506477968.91,7941,14.88,74734.0,1.49,-25.75,-26.17,0,*4D
1506477970.13,7942,14.88,74728.8,1.49,-25.75,-26.07,0,*4F
1506477971.39,7943,14.88,74728.5,1.51,-25.71,-26.03,0,*47
1506477972.59,7944,14.88,74732.0,1.49,-25.87,-26.07,0,*44
1506477973.81,7945,14.88,74730.5,1.49,-25.87,-26.17,0,*44
1506477975.03,7946,14.88,74730.8,1.49,-25.87,-26.17,0,*47
1506477976.26,7947,14.88,74732.0,1.51,-25.87,-26.03,0,*4A
1506477977.45,7948,14.88,74728.8,1.49,-25.91,-26.23,0,*49
1506477978.71,7949,14.88,74730.8,1.51,-25.71,-26.03,0,*4D
1506477979.93,7950,14.88,74730.5,1.49,-25.87,-26.17,0,*40
1506477981.12,7951,14.88,74732.5,1.49,-25.91,-26.23,0,*41
1506477982.35,7952,14.88,74732.3,1.49,-25.87,-26.17,0,*42
1506477983.6,7953,14.88,74730.8,1.51,-25.81,-26.03,0,*49
1506477984.82,7954,14.88,74728.0,1.49,-26.07,-26.33,0,*49
1506477986.04,7955,14.88,74728.0,1.49,-25.91,-26.17,0,*42
1506477987.26,7956,14.88,74730.3,1.49,-25.91,-26.33,0,*47
1506477988.46,7957,14.88,74728.8,1.49,-26.07,-26.45,0,*4B
1506477989.71,7958,14.88,74732.3,1.51,-25.81,-26.03,0,*42
1506477990.96,7959,14.88,74724.3,1.47,-25.87,-26.17,0,*47
1506477992.22,7960,14.88,74730.3,1.47,-25.71,-26.03,0,*41
1506477993.42,7961,14.88,74728.3,1.49,-25.87,-26.07,0,*43
1506477994.67,7962,14.88,74728.3,1.47,-25.75,-26.03,0,*47
1506477995.93,7963,14.94,74734.0,1.47,-25.75,-26.03,0,*46
1506477997.12,7964,14.88,74728.8,1.49,-25.61,-25.87,0,*45
1506477998.35,7965,14.88,74730.3,1.49,-25.71,-26.07,0,*4E
1506477999.55,7966,14.88,74730.3,1.49,-25.61,-25.91,0,*40
1506478000.77,7967,14.88,74728.8,1.49,-25.87,-26.17,0,*44
1506478001.99,7968,14.88,74728.5,1.49,-25.91,-26.17,0,*4C
1506478003.21,7969,14.88,74730.0,1.49,-25.87,-26.17,0,*4A
1506478004.41,7970,14.88,74728.3,1.49,-25.87,-26.07,0,*43
1506478005.61,7971,14.88,74732.3,1.49,-25.87,-26.07,0,*42
1506478006.83,7972,14.88,74730.3,1.47,-25.61,-26.03,0,*43
1506478008.05,7973,14.88,74724.5,1.49,-25.75,-25.91,0,*41
1506478009.28,7974,14.88,74730.5,1.49,-25.71,-26.07,0,*4E
1506478010.51,7975,14.88,74730.5,1.49,-25.75,-26.07,0,*4B
1506478011.74,7976,14.88,74732.0,1.49,-25.71,-26.03,0,*48
1506478012.96,7977,14.88,74730.5,1.49,-25.71,-25.87,0,*46
1506478014.16,7978,14.88,74726.5,1.49,-25.61,-25.91,0,*4F
1506478015.41,7979,14.88,74730.5,1.47,-25.71,-25.91,0,*41
1506478016.61,7980,14.88,74728.5,1.49,-25.87,-26.07,0,*4C
1506478017.88,7981,14.88,74728.8,1.51,-25.81,-26.17,0,*43
1506478019.11,7982,14.88,74730.8,1.49,-25.75,-26.03,0,*47
1506478020.38,7983,14.88,74732.0,1.51,-25.75,-26.17,0,*4A
1506478021.57,7984,14.88,74728.3,1.49,-25.91,-26.23,0,*49
1506478022.76,7985,14.88,74734.0,1.49,-25.91,-26.23,0,*48
1506478023.96,7986,14.88,74728.3,1.49,-25.87,-26.23,0,*4C
1506478025.18,7987,14.88,74728.8,1.49,-25.75,-26.07,0,*46
1506478026.41,7988,14.88,74730.8,1.47,-25.61,-26.03,0,*46
1506478027.64,7989,14.88,74734.0,1.49,-25.71,-26.03,0,*48
1506478028.87,7990,14.88,74734.8,1.49,-25.75,-26.07,0,*40
1506478030.12,7991,14.88,74732.3,1.47,-25.75,-26.07,0,*4F
1506478031.34,7992,14.88,74728.5,1.47,-25.91,-26.23,0,*40
1506478032.59,7993,14.88,74728.3,1.47,-25.87,-26.17,0,*41
1506478033.84,7994,14.88,74732.5,1.47,-25.87,-26.17,0,*46
1506478035.06,7995,14.88,74732.0,1.49,-25.75,-26.07,0,*45
1506478036.29,7996,14.88,74730.0,1.49,-25.71,-26.03,0,*46
1506478037.52,7997,14.88,74728.0,1.49,-25.71,-26.03,0,*47
1506478038.75,7998,14.88,74730.5,1.49,-25.75,-26.03,0,*4C
1506478039.97,7999,14.88,74728.8,1.49,-25.91,-26.17,0,*42
1506478041.19,8000,14.88,74728.3,1.49,-25.91,-26.17,0,*44
1506478042.42,8001,14.88,74730.3,1.49,-25.71,-26.07,0,*4A
1506478043.64,8002,14.88,74728.8,1.49,-25.87,-26.17,0,*41
1506478044.84,8003,14.88,74730.0,1.49,-25.61,-26.03,0,*4D
1506478046.06,8004,14.88,74730.8,1.49,-25.91,-26.17,0,*40
1506478047.28,8005,14.88,74728.5,1.49,-25.87,-26.17,0,*46
1506478048.5,8006,14.88,74728.3,1.49,-25.87,-26.17,0,*45
1506478049.76,8007,14.88,74730.0,1.47,-25.75,-26.07,0,*46
1506478050.97,8008,14.88,74736.0,1.47,-25.91,-26.23,0,*45
1506478052.22,8009,14.88,74732.5,1.47,-25.91,-26.33,0,*45
1506478053.48,8010,14.88,74730.3,1.45,-25.97,-26.13,0,*4B
1506478054.7,8011,14.88,74728.8,1.47,-25.87,-26.07,0,*4C
1506478055.96,8012,14.88,74730.8,1.45,-25.75,-26.13,0,*45
1506478057.18,8013,14.88,74734.5,1.47,-25.87,-26.07,0,*4E
1506478058.41,8014,14.88,74728.3,1.45,-25.91,-26.13,0,*49
1506478059.66,8015,14.88,74732.8,1.47,-25.71,-26.07,0,*41
1506478060.88,8016,14.88,74730.8,1.45,-25.81,-26.23,0,*49
1506478062.1,8017,14.88,74730.3,1.47,-25.91,-26.23,0,*4B
1506478063.3,8018,14.88,74730.8,1.45,-25.91,-26.23,0,*46
1506478064.52,8019,14.88,74728.8,1.47,-25.91,-26.23,0,*45
1506478065.77,8020,14.88,74730.3,1.47,-25.87,-26.17,0,*4F
1506478067.02,8021,14.88,74730.3,1.47,-25.75,-26.03,0,*46
1506478068.25,8022,14.88,74728.8,1.45,-25.97,-26.23,0,*49
1506478069.52,8023,14.88,74730.0,1.47,-25.75,-26.17,0,*41
1506478070.75,8024,14.88,74732.3,1.47,-25.87,-26.07,0,*4A
1506478071.98,8025,14.88,74728.5,1.47,-25.61,-26.03,0,*47
1506478073.23,8026,14.88,74728.8,1.47,-25.75,-26.07,0,*45
1506478074.51,8027,14.88,74728.0,1.47,-25.75,-26.17,0,*45
1506478075.7,8028,14.88,74728.0,1.45,-25.91,-26.23,0,*45
1506478076.95,8029,14.88,74730.5,1.47,-25.75,-26.07,0,*4A
1506478078.17,8030,14.88,74724.8,1.47,-25.91,-26.23,0,*4E
1506478079.4,8031,14.88,74724.8,1.45,-25.91,-26.13,0,*4E
1506478080.65,8032,14.88,74730.3,1.47,-25.87,-26.17,0,*4C
1506478081.88,8033,14.88,74728.8,1.45,-26.07,-26.33,0,*42
1506478083.12,8034,14.88,74728.3,1.47,-25.87,-26.17,0,*4A
1506478084.32,8035,14.88,74728.0,1.45,-25.91,-26.23,0,*49
1506478085.54,8036,14.88,74730.3,1.45,-25.91,-26.13,0,*49
1506478086.77,8037,14.88,74726.0,1.47,-25.87,-26.07,0,*48
1506478087.97,8038,14.88,74732.0,1.45,-25.91,-26.23,0,*44
1506478089.16,8039,14.88,74728.8,1.45,-25.91,-26.23,0,*45
1506478090.38,8040,14.88,74734.0,1.45,-25.91,-26.13,0,*48
1506478091.64,8041,14.88,74732.0,1.45,-25.75,-25.97,0,*4C
1506478092.84,8042,14.88,74730.5,1.45,-25.61,-26.07,0,*40
1506478094.04,8043,14.88,74730.3,1.45,-25.61,-25.91,0,*4D
1506478095.27,8044,14.88,74730.3,1.45,-25.65,-25.97,0,*48
1506478096.47,8045,14.88,74732.8,1.45,-25.65,-26.07,0,*43
1506478097.73,8046,14.88,74732.5,1.47,-25.71,-26.03,0,*43
1506478098.96,8047,14.88,74734.8,1.45,-25.49,-25.75,0,*49
1506478100.19,8048,14.88,74734.0,1.45,-25.49,-25.75,0,*46
1506478101.45,8049,14.88,74730.0,1.47,-25.39,-25.71,0,*46
1506478102.7,8050,14.88,74728.5,1.47,-25.71,-26.03,0,*44
1506478103.9,8051,14.88,74728.3,1.45,-25.91,-26.23,0,*4B
1506478105.13,8052,14.88,74728.8,1.45,-25.75,-26.07,0,*44
1506478106.35,8053,14.88,74730.8,1.45,-25.75,-25.91,0,*49
1506478107.57,8054,14.88,74728.0,1.45,-25.81,-26.23,0,*4F
1506478108.82,8055,14.88,74730.0,1.47,-25.87,-26.17,0,*4D
1506478110.05,8056,14.88,74732.5,1.47,-25.87,-26.07,0,*4F